FW4090 Weather Reports


time (UTC)temp
C
wind
direction
speed
KPH
gust
KPH
rain 1hr
cm
rain 24hr
cm
rain mn
cm
humidity
%
barometer
mb
20260507221849 10 186 1.6 8.0 0.00 0.03 0.03 75 1013.4
20260507220349 10 120 3.2 6.4 0.00 0.03 0.03 76 1013.4
20260507214851 11 122 1.6 4.8 0.00 0.03 0.03 76 1013.3
20260507213351 11 127 1.6 4.8 0.00 0.03 0.03 77 1013.3
20260507211851 11 129 3.2 9.7 0.00 0.03 0.03 77 1013.2
20260507210349 11 130 3.2 8.0 0.00 0.03 0.03 79 1013.2
20260507204849 11 134 1.6 4.8 0.00 0.03 0.03 79 1013.1
20260507203350 11 114 3.2 9.7 0.00 0.03 0.03 81 1012.9
20260507201850 10 122 3.2 6.4 0.00 0.03 0.03 84 1012.8
20260507200350 10 122 1.6 4.8 0.00 0.03 0.03 86 1012.7
20260507194849 11 112 1.6 4.8 0.00 0.03 0.03 86 1012.6
20260507193349 11 115 0.0 3.2 0.00 0.03 0.03 85 1012.5
20260507191847 11 127 0.0 3.2 0.03 0.03 0.03 85 1012.4
20260507190341 11 131 0.0 3.2 0.03 0.03 0.03 84 1012.4
20260507184842 11 222 0.0 4.8 0.03 0.03 0.03 83 1012.3
20260507183340 11 115 1.6 6.4 0.03 0.03 0.03 82 1012.2
20260507181838 11 117 3.2 4.8 0.00 0.00 0.00 83 1012.2
20260507180339 11 117 1.6 4.8 0.00 0.00 0.00 83 1012.2
20260507174836 11 127 1.6 6.4 0.00 0.00 0.00 84 1012.2
20260507173335 11 101 3.2 6.4 0.00 0.00 0.00 85 1012.3
20260507171835 11 139 1.6 3.2 0.00 0.00 0.00 84 1012.3
20260507170334 11 112 3.2 6.4 0.00 0.00 0.00 81 1012.3
20260507164830 12 101 3.2 9.7 0.00 0.00 0.00 79 1012.4
20260507164035 12 271 6.4 12.9 0.00 0.00 0.00 76 1012.2
20260507161833 12 282 4.8 19.3 0.00 0.00 0.00 72 1012.1
20260507160326 13 166 4.8 12.9 0.00 0.00 0.00 64 1011.9
20260507154826 14 205 4.8 16.1 0.00 0.00 0.00 63 1011.9
20260507153324 13 155 4.8 16.1 0.00 0.00 0.00 63 1012.0
20260507151826 13 122 4.8 9.7 0.00 0.00 0.00 63 1012.0
20260507151018 13 179 4.8 16.1 0.00 0.00 0.00 64 1012.0
20260507144824 14 140 6.4 19.3 0.00 0.00 0.00 62 1012.1
20260507143320 13 131 6.4 17.7 0.00 0.00 0.00 62 1012.2
20260507142524 13 198 6.4 14.5 0.00 0.00 0.00 63 1012.4
20260507141010 13 116 6.4 17.7 0.00 0.00 0.00 63 1012.5
20260507134820 14 124 8.0 19.3 0.00 0.00 0.00 63 1012.5
20260507133321 14 168 6.4 16.1 0.00 0.00 0.00 62 1012.6
20260507131820 14 135 3.2 11.3 0.00 0.00 0.00 64 1012.7
20260507131017 13 161 6.4 14.5 0.00 0.00 0.00 65 1012.9
20260507125513 13 144 6.4 19.3 0.00 0.00 0.00 67 1012.9
20260507123316 13 222 8.0 19.3 0.00 0.00 0.00 70 1013.0
20260507121816 12 160 8.0 17.7 0.00 0.00 0.00 72 1013.0
20260507121021 12 149 6.4 19.3 0.00 0.00 0.00 73 1013.1
20260507114815 11 130 6.4 19.3 0.00 0.00 0.00 74 1013.1
20260507113316 11 129 6.4 17.7 0.00 0.00 0.00 77 1013.1
20260507111816 11 129 6.4 16.1 0.00 0.00 0.00 79 1013.2
20260507110316 10 145 6.4 17.7 0.00 0.00 0.00 81 1013.3
20260507104816 9 118 6.4 17.7 0.00 0.00 0.00 82 1013.4
20260507103316 9 111 8.0 20.9 0.00 0.00 0.00 83 1013.5
20260507101817 8 119 6.4 16.1 0.00 0.00 0.00 84 1013.6
20260507100316 8 131 6.4 19.3 0.00 0.00 0.00 85 1013.6
20260507094818 8 115 6.4 17.7 0.00 0.00 0.00 85 1013.5
20260507094701 8 120 9.7 20.9 0.00 0.00 0.00 84 1013.5
20260507092515 8 131 8.0 19.3 0.00 0.00 0.00 85 1013.5
20260507090317 8 123 6.4 19.3 0.00 0.00 0.00 85 1013.6
20260507084817 7 120 8.0 19.3 0.00 0.00 0.00 86 1013.5
20260507083316 7 139 9.7 20.9 0.00 0.00 0.00 87 1013.5
20260507081818 7 108 8.0 19.3 0.00 0.00 0.00 87 1013.4
20260507080315 7 96 9.7 19.3 0.00 0.00 0.00 87 1013.5
20260507074817 7 134 9.7 22.5 0.00 0.00 0.00 87 1013.5
20260507074028 7 139 9.7 17.7 0.00 0.00 0.00 87 1013.5
20260507071817 7 139 8.0 19.3 0.00 0.00 0.00 87 1013.4
20260507071710 7 84 8.0 17.7 0.00 0.00 0.00 87 1013.4
20260507064817 7 127 8.0 22.5 0.00 0.00 0.00 87 1013.3
20260507063317 7 95 9.7 20.9 0.00 0.00 0.00 87 1013.3
20260507061818 7 134 11.3 22.5 0.00 0.00 0.00 87 1013.2
20260507060309 7 105 8.0 20.9 0.00 0.00 0.00 87 1013.1
20260507055515 7 134 9.7 19.3 0.00 0.00 0.00 87 1013.1
20260507053309 7 145 8.0 19.3 0.00 0.00 0.00 87 1013.1
20260507051809 7 115 9.7 19.3 0.00 0.00 0.00 87 1013.0
20260507050311 7 134 9.7 19.3 0.00 0.00 0.00 87 1012.9
20260507044809 6 102 9.7 20.9 0.00 0.00 0.00 87 1012.9
20260507044708 6 111 9.7 19.3 0.00 0.00 0.00 87 1012.9
20260507041809 6 139 8.0 20.9 0.00 0.00 0.00 87 1012.9
20260507040309 6 105 8.0 20.9 0.00 0.00 0.00 86 1013.1
20260507034811 7 112 8.0 19.3 0.00 0.00 0.00 86 1013.1
20260507033311 7 143 9.7 20.9 0.00 0.03 0.00 86 1013.1
20260507031809 7 198 6.4 14.5 0.00 0.03 0.00 85 1013.1
20260507030309 7 113 8.0 16.1 0.00 0.03 0.00 85 1013.1
20260507024811 7 106 8.0 24.1 0.00 0.03 0.00 85 1013.3
20260507023309 7 193 6.4 19.3 0.00 0.03 0.00 85 1013.4
20260507021809 7 146 8.0 20.9 0.00 0.03 0.00 85 1013.3
20260507020305 7 166 8.0 17.7 0.00 0.03 0.00 84 1013.4
20260507014805 7 125 8.0 20.9 0.00 0.03 0.00 84 1013.4
20260507014006 7 108 8.0 20.9 0.00 0.03 0.00 83 1013.3
20260507011803 7 160 8.0 22.5 0.00 0.03 0.00 83 1013.3
20260507011644 7 135 8.0 22.5 0.00 0.03 0.00 82 1013.3
20260507004802 7 98 8.0 22.5 0.00 0.03 0.00 81 1013.3
20260507003259 7 83 8.0 19.3 0.00 0.03 0.00 81 1013.5
20260507001800 8 203 8.0 17.7 0.00 0.03 0.00 80 1013.6
20260507000300 8 136 8.0 17.7 0.00 0.03 0.00 80 1013.7
20260506234758 8 127 6.4 20.9 0.00 0.03 0.00 80 1013.6
20260506233257 8 108 4.8 14.5 0.00 0.03 0.00 79 1013.5
20260506231758 8 173 4.8 14.5 0.00 0.03 0.00 79 1013.5
20260506230958 8 160 4.8 9.7 0.00 0.03 0.00 78 1013.5
20260506224754 8 123 4.8 14.5 0.00 0.03 0.03 77 1013.4
20260506223955 8 101 4.8 9.7 0.00 0.03 0.03 76 1013.4